[TLELIST] Archives

 

[TLELIST] Current TLEs

April 26th 2026 PDT

0 HST 1 20580U 90037B 26115.58527907 .00006480 00000-0 20815-3 0 9999 2 20580 28.4745 79.9164 0001645 280.6914 79.3497 15.30144545780500 0 ISS (ZARYA) 1 25544U 98067A 26115.61933538 .00010271 00000-0 19457-3 0 9993 2 25544 51.6320 200.2872 0006949 349.7097 10.3748 15.48952974563604 0 CXO 1 25867U 99040B 26116.48545806 .00000635 00000-0 00000-0 0 9990 2 25867 55.3936 118.0844 7921578 310.6209 359.8842 0.37809726 17129 ...Continue Reading

[TLELIST] Current TLEs

April 26th 2026 PDT

0 HST 1 20580U 90037B 26115.58527907 .00006480 00000-0 20815-3 0 9999 2 20580 28.4745 79.9164 0001645 280.6914 79.3497 15.30144545780500 0 ISS (ZARYA) 1 25544U 98067A 26115.61933538 .00010271 00000-0 19457-3 0 9993 2 25544 51.6320 200.2872 0006949 349.7097 10.3748 15.48952974563604 0 CXO 1 25867U 99040B 26116.48545806 .00000635 00000-0 00000-0 0 9990 2 25867 55.3936 118.0844 7921578 310.6209 359.8842 0.37809726 17129 ...Continue Reading

[TLELIST] Current TLEs

April 25th 2026 PDT

0 HST 1 20580U 90037B 26115.25917011 .00006863 00000-0 22090-3 0 9994 2 20580 28.4745 82.1433 0001662 276.7624 83.2783 15.30141373780450 0 ISS (ZARYA) 1 25544U 98067A 26115.16771349 .00010683 00000-0 20209-3 0 9997 2 25544 51.6320 202.5215 0006921 348.0684 12.0139 15.48944607563533 0 CXO 1 25867U 99040B 26116.48545806 .00000635 00000-0 00000-0 0 9990 2 25867 55.3936 118.0844 7921578 310.6209 359.8842 0.37809726 17129 ...Continue Reading

[TLELIST] Current TLEs

April 24th 2026 PDT

0 HST 1 20580U 90037B 26114.15039360 .00005216 00000-0 16623-3 0 9990 2 20580 28.4743 89.7140 0001693 261.8757 98.1646 15.30126545780280 0 ISS (ZARYA) 1 25544U 98067A 26113.61927547 .00009382 00000-0 17870-3 0 9992 2 25544 51.6319 210.1816 0006828 342.1779 17.8969 15.48913482563293 0 CXO 1 25867U 99040B 26116.48545806 .00000635 00000-0 00000-0 0 9990 2 25867 55.3936 118.0844 7921578 310.6209 359.8842 0.37809726 17129 ...Continue Reading

[TLELIST] Current TLEs

April 23rd 2026 PDT

0 HST 1 20580U 90037B 26113.30249997 .00004696 00000-0 14894-3 0 9994 2 20580 28.4741 95.5035 0001719 251.1381 108.9029 15.30116735780151 0 ISS (ZARYA) 1 25544U 98067A 26113.16764225 .00008377 00000-0 16051-3 0 9997 2 25544 51.6318 212.4157 0006795 340.3365 19.7360 15.48903747563221 0 CXO 1 25867U 99040B 26113.83993460 .00000728 00000-0 00000-0 0 9992 2 25867 55.3514 118.1584 7928446 310.6275 359.7714 0.37806207 17125 ...Continue Reading

[TLELIST] Current TLEs

April 22nd 2026 PDT

0 HST 1 20580U 90037B 26112.19370843 .00004727 00000-0 15003-3 0 9993 2 20580 28.4737 103.0742 0001772 237.2093 122.8332 15.30106155779986 0 ISS (ZARYA) 1 25544U 98067A 26112.19984875 .00008419 00000-0 16138-3 0 9997 2 25544 51.6321 217.2027 0006732 336.5555 23.5126 15.48885886563072 0 CXO 1 25867U 99040B 26113.83993460 .00000728 00000-0 00000-0 0 9992 2 25867 55.3514 118.1584 7928446 310.6275 359.7714 0.37806207 17125 ...Continue Reading

[TLELIST] Current TLEs

April 22nd 2026 PDT

0 HST 1 20580U 90037B 26112.19370843 .00004727 00000-0 15003-3 0 9993 2 20580 28.4737 103.0742 0001772 237.2093 122.8332 15.30106155779986 0 ISS (ZARYA) 1 25544U 98067A 26112.19984875 .00008419 00000-0 16138-3 0 9997 2 25544 51.6321 217.2027 0006732 336.5555 23.5126 15.48885886563072 0 CXO 1 25867U 99040B 26113.83993460 .00000728 00000-0 00000-0 0 9992 2 25867 55.3514 118.1584 7928446 310.6275 359.7714 0.37806207 17125 ...Continue Reading

[TLELIST] Current TLEs

April 21st 2026 PDT

0 HST 1 20580U 90037B 26110.69356657 .00004750 00000-0 15086-3 0 9990 2 20580 28.4731 113.3167 0001850 219.7473 140.2988 15.30092184779751 0 ISS (ZARYA) 1 25544U 98067A 26110.78039753 .00009753 00000-0 18580-3 0 9991 2 25544 51.6325 224.2241 0006702 330.9223 29.1391 15.48857372562859 0 CXO 1 25867U 99040B 26111.19503102 .00000784 00000-0 00000-0 0 9991 2 25867 55.3045 118.2449 7934791 310.6117 359.7854 0.37808090 17105 ...Continue Reading

[TLELIST] Current TLEs

April 20th 2026 PDT

0 HST 1 20580U 90037B 26110.30222324 .00004272 00000-0 13496-3 0 9993 2 20580 28.4730 115.9889 0001886 214.8059 145.2413 15.30087398779696 0 ISS (ZARYA) 1 25544U 98067A 26110.13518311 .00007929 00000-0 15272-3 0 9990 2 25544 51.6328 227.4156 0006665 328.2959 31.7627 15.48842238562751 0 CXO 1 25867U 99040B 26111.19503102 .00000784 00000-0 00000-0 0 9991 2 25867 55.3045 118.2449 7934791 310.6117 359.7854 0.37808090 17105 ...Continue Reading

[TLELIST] Current TLEs

April 19th 2026 PDT

0 HST 1 20580U 90037B 26109.12818657 .00004692 00000-0 14900-3 0 9998 2 20580 28.4728 124.0054 0001975 201.9875 158.0636 15.30079379779510 0 ISS (ZARYA) 1 25544U 98067A 26109.16735171 .00008294 00000-0 15944-3 0 9998 2 25544 51.6330 232.2024 0006622 324.6287 35.4262 15.48825421562604 0 CXO 1 25867U 99040B 26111.19503102 .00000784 00000-0 00000-0 0 9991 2 25867 55.3045 118.2449 7934791 310.6117 359.7854 0.37808090 17105 ...Continue Reading
  • This mailing list is a public mailing list - anyone may join or leave, at any time.
  • This mailing list is announce-only.

International Space Station (ISS) / Hubble Space Telescope (HST) / Chandra X-Ray Observatory Orbital Data via EMAIL

Privacy Policy:

Private list